Change the Weather History Date:

Thursday, September 27, 2012

  Actual Average Record
Temperature  
Mean Temperature 83 °F 80 °F  
Max Temperature 92 °F 88 °F 95 °F (1990)
Min Temperature 74 °F 73 °F 59 °F (1956)
Degree Days  
Heating Degree Days 0 0  
Month to date heating degree days 0 0  
Since 1 July heating degree days 0 0  
Cooling Degree Days 18 15  
Month to date cooling degree days 457 458  
Year to date cooling degree days 3377 2973  
Growing Degree Days 32 (Base 50)    
Moisture  
Dew Point 70 °F    
Average Humidity 69    
Maximum Humidity 87    
Minimum Humidity 50    
Precipitation  
Precipitation 0.00 in 0.16 in 2.23 in (1997)
Month to date precipitation 5.45 5.85  
Year to date precipitation 50.41 39.57  
Sea Level Pressure  
Sea Level Pressure 30.08 in    
Wind  
Wind Speed 5 mph (North)    
Max Wind Speed 14 mph    
Max Gust Speed 21 mph    
Visibility 10 miles    
Events      
T = Trace of Precipitation, MM = Missing Value Source: NWS Daily Summary

Daily Weather History Graph

Daily Weather History Graph

Search for Another Location

Airport or City:

Trip Planner

Search our weather history database for the weather conditions in past years. The results will help you decide how hot, cold, wet, or windy it might be!

Date:

Astronomy

Sep. 27, 2012 Rise Set
Actual Time 7:21 AM EDT 7:20 PM EDT
Civil Twilight 6:57 AM EDT 7:43 PM EDT
Nautical Twilight 6:30 AM EDT 8:10 PM EDT
Astronomical Twilight 6:03 AM EDT 8:38 PM EDT
Moon 5:44 PM EDT 4:58 AM EDT
Length of Visible Light 12h 45m
Length of Day
11h 58m
Waxing Gibbous, 94% of the Moon is Illuminated
Sep 27
Waxing Gibbous
Sep 29
Full
Oct 8
Last Quarter
Oct 15
New
Oct 21
First Quarter

Hourly Weather History & Observations

Time (EDT) Temp. Heat Index Dew Point Humidity Pressure Visibility Wind Dir Wind Speed Gust Speed Precip Events Conditions
12:53 AM 77.0 °F - 72.0 °F 84% 30.11 in 10.0 mi Calm Calm - N/A   Scattered Clouds
1:53 AM 75.9 °F - 72.0 °F 87% 30.10 in 10.0 mi NNE 3.5 mph - N/A   Partly Cloudy
2:53 AM 75.9 °F - 71.1 °F 85% 30.09 in 10.0 mi Calm Calm - N/A   Partly Cloudy
3:53 AM 75.9 °F - 71.1 °F 85% 30.08 in 10.0 mi Calm Calm - N/A   Clear
4:53 AM 75.0 °F - 70.0 °F 84% 30.08 in 10.0 mi NNE 3.5 mph - N/A   Partly Cloudy
5:53 AM 75.0 °F - 70.0 °F 84% 30.09 in 10.0 mi NE 3.5 mph - N/A   Partly Cloudy
6:53 AM 75.0 °F - 71.1 °F 87% 30.11 in 10.0 mi Calm Calm - N/A   Mostly Cloudy
7:53 AM 75.0 °F - 71.1 °F 87% 30.12 in 10.0 mi NNE 4.6 mph - N/A   Mostly Cloudy
8:53 AM 77.0 °F - 72.0 °F 84% 30.12 in 10.0 mi ENE 5.8 mph - N/A   Scattered Clouds
9:53 AM 80.1 °F 84.2 °F 73.0 °F 79% 30.13 in 10.0 mi NNE 3.5 mph - N/A   Mostly Cloudy
10:53 AM 84.0 °F 89.0 °F 71.1 °F 65% 30.13 in 10.0 mi ENE 5.8 mph - N/A   Scattered Clouds
11:53 AM 87.1 °F 91.3 °F 69.1 °F 55% 30.13 in 10.0 mi Variable 3.5 mph - N/A   Scattered Clouds
12:53 PM 88.0 °F 91.4 °F 68.0 °F 51% 30.11 in 10.0 mi Variable 6.9 mph - N/A   Scattered Clouds
1:53 PM 90.0 °F 93.6 °F 68.0 °F 48% 30.08 in 10.0 mi North 8.1 mph - N/A   Scattered Clouds
2:53 PM 88.0 °F 93.8 °F 71.1 °F 57% 30.06 in 10.0 mi West 5.8 mph - N/A   Mostly Cloudy
3:53 PM 86.0 °F 90.7 °F 70.0 °F 59% 30.03 in 10.0 mi WSW 6.9 mph - N/A   Scattered Clouds
4:53 PM 86.0 °F 92.2 °F 72.0 °F 63% 30.02 in 10.0 mi WSW 8.1 mph - N/A   Scattered Clouds
5:53 PM 84.9 °F 88.2 °F 68.0 °F 57% 30.02 in 10.0 mi NW 6.9 mph - N/A   Scattered Clouds
6:53 PM 84.9 °F 87.1 °F 66.0 °F 53% 30.04 in 10.0 mi North 8.1 mph - N/A   Scattered Clouds
7:53 PM 82.0 °F 85.5 °F 69.1 °F 65% 30.04 in 10.0 mi NW 5.8 mph - N/A   Scattered Clouds
8:53 PM 82.0 °F 85.5 °F 69.1 °F 65% 30.07 in 10.0 mi North 8.1 mph - N/A   Mostly Cloudy
9:53 PM 81.0 °F 84.1 °F 69.1 °F 67% 30.08 in 10.0 mi NE 9.2 mph - N/A   Mostly Cloudy
10:53 PM 80.1 °F 82.9 °F 69.1 °F 69% 30.09 in 10.0 mi ENE 4.6 mph - N/A   Scattered Clouds
11:53 PM 78.1 °F - 70.0 °F 76% 30.07 in 10.0 mi Calm Calm - N/A   Scattered Clouds